Oakes, ND

10:34 AM CST on February 10, 2016 (GMT -0600)
Oakes

Weather History for K2D5 - September, 2012

Change the Weather History Date:

Friday, September 21, 2012

  Actual Average (KABR) Record (KABR)
Temperature  
Mean Temperature 50 °F 56 °F  
Max Temperature 66 °F 70 °F 99 °F (1936)
Min Temperature 35 °F 43 °F 22 °F (1893)
Degree Days  
Heating Degree Days 14 9  
Month to date heating degree days 123  
Since 1 July heating degree days 174  
Cooling Degree Days 0 1  
Month to date cooling degree days 37  
Year to date cooling degree days 520  
Moisture  
Dew Point 36 °F    
Average Humidity 58    
Maximum Humidity 100    
Minimum Humidity 22    
Precipitation  
Precipitation 0.00 in 0.07 in 1.85 in (1959)
Month to date precipitation 1.55  
Year to date precipitation 17.84  
Sea Level Pressure  
Sea Level Pressure 29.93 in    
Wind  
Wind Speed 7 mph (NNW)    
Max Wind Speed 25 mph    
Max Gust Speed 34 mph    
Visibility 10 miles    
Events      
T = Trace of Precipitation, MM = Missing Value Source: NWS Daily Summary

Daily Weather History Graph

Daily Weather History Graph

Search for Another Location

Airport or City:

Trip Planner

Search our weather history database for the weather conditions in past years. The results will help you decide how hot, cold, wet, or windy it might be!

Date:

Astronomy

Sep. 21, 2012 Rise Set
Actual Time 7:18 AM CDT 7:30 PM CDT
Civil Twilight 6:48 AM CDT 8:00 PM CDT
Nautical Twilight 6:13 AM CDT 8:35 PM CDT
Astronomical Twilight 5:37 AM CDT 9:12 PM CDT
Moon 2:02 PM CDT (9/21) 11:12 PM CDT (9/21)
Length of Visible Light 13h 12m
Length of Day
12h 12m
Waxing Crescent, 37% of the Moon is Illuminated
Sep 21
Waxing Crescent
Sep 22
First Quarter
Sep 29
Full
Oct 8
Last Quarter
Oct 15
New

Hourly Weather History & Observations

Time (CDT) Temp. Windchill Dew Point Humidity Pressure Visibility Wind Dir Wind Speed Gust Speed Precip Events Conditions
12:15 AM 50.0 °F - 39.2 °F 66% 29.88 in 10.0 mi SW 3.5 mph - N/A   Mostly Cloudy
12:35 AM 51.8 °F - 37.4 °F 58% 29.87 in 10.0 mi SW 4.6 mph - N/A   Mostly Cloudy
12:55 AM 50.0 °F - 39.2 °F 66% 29.88 in 10.0 mi WSW 3.5 mph - N/A   Mostly Cloudy
1:15 AM 50.0 °F - 39.2 °F 66% 29.87 in 10.0 mi Calm Calm - N/A   Mostly Cloudy
1:35 AM 50.0 °F - 37.4 °F 62% 29.87 in 10.0 mi Calm Calm - N/A   Mostly Cloudy
1:55 AM 50.0 °F - 37.4 °F 62% 29.87 in 10.0 mi Calm Calm - N/A   Clear
2:15 AM 48.2 °F - 39.2 °F 71% 29.87 in 10.0 mi Calm Calm - N/A   Clear
2:35 AM 48.2 °F - 37.4 °F 66% 29.86 in 10.0 mi Calm Calm - N/A   Clear
2:55 AM 48.2 °F - 39.2 °F 71% 29.86 in 10.0 mi Calm Calm - N/A   Clear
3:15 AM 46.4 °F - 39.2 °F 76% 29.86 in 10.0 mi Calm Calm - N/A   Clear
3:35 AM 46.4 °F 41.5 °F 41.0 °F 81% 29.87 in 10.0 mi NE 10.4 mph - N/A   Clear
3:55 AM 48.2 °F - 39.2 °F 71% 29.87 in 10.0 mi NE 5.8 mph - N/A   Clear
4:15 AM 48.2 °F - 39.2 °F 71% 29.87 in 10.0 mi East 6.9 mph - N/A   Partly Cloudy
4:35 AM 46.4 °F 43.5 °F 41.0 °F 81% 29.86 in 10.0 mi East 5.8 mph - N/A   Partly Cloudy
4:55 AM 46.4 °F 45.2 °F 41.0 °F 81% 29.86 in 10.0 mi ESE 3.5 mph - N/A   Clear
5:15 AM 46.4 °F - 41.0 °F 81% 29.86 in 10.0 mi Calm Calm - N/A   Clear
5:35 AM 46.4 °F - 41.0 °F 81% 29.86 in 10.0 mi Calm Calm - N/A   Clear
5:55 AM 44.6 °F - 41.0 °F 87% 29.86 in 10.0 mi Calm Calm - N/A   Clear
6:15 AM 44.6 °F 43.1 °F 41.0 °F 87% 29.87 in 10.0 mi NW 3.5 mph - N/A   Clear
6:35 AM 41.0 °F 39.0 °F 39.2 °F 93% 29.88 in 10.0 mi NNW 3.5 mph - N/A   Clear
6:55 AM 41.0 °F 38.0 °F 41.0 °F 100% 29.88 in 10.0 mi North 4.6 mph - N/A   Clear
7:35 AM 41.0 °F 39.0 °F 41.0 °F 100% 29.89 in 10.0 mi NW 3.5 mph - N/A   Clear
7:55 AM 44.6 °F 41.4 °F 42.8 °F 93% 29.90 in 10.0 mi NW 5.8 mph - N/A   Clear
8:15 AM 44.6 °F - 42.8 °F 93% 29.91 in 10.0 mi Calm Calm - N/A   Clear
8:35 AM 44.6 °F - 42.8 °F 93% 29.92 in 10.0 mi Calm Calm - N/A   Clear
8:55 AM 46.4 °F 43.5 °F 42.8 °F 87% 29.92 in 10.0 mi NW 5.8 mph - N/A   Clear
9:15 AM 50.0 °F - 42.8 °F 76% 29.93 in 10.0 mi NNW 6.9 mph - N/A   Clear
9:35 AM 50.0 °F - 41.0 °F 71% 29.93 in 10.0 mi NW 5.8 mph - N/A   Clear
9:55 AM 53.6 °F - 41.0 °F 62% 29.93 in 10.0 mi NNW 3.5 mph - N/A   Clear
10:15 AM 53.6 °F - 41.0 °F 62% 29.93 in 10.0 mi NW 3.5 mph - N/A   Partly Cloudy
10:35 AM 55.4 °F - 41.0 °F 58% 29.93 in 10.0 mi NNE 3.5 mph - N/A   Scattered Clouds
10:55 AM 57.2 °F - 39.2 °F 51% 29.93 in 10.0 mi NNE 6.9 mph - N/A   Partly Cloudy
11:15 AM 57.2 °F - 39.2 °F 51% 29.93 in 10.0 mi NNW 6.9 mph - N/A   Clear
11:35 AM 57.2 °F - 39.2 °F 51% 29.93 in 10.0 mi North 5.8 mph - N/A   Clear
11:55 AM 59.0 °F - 39.2 °F 48% 29.92 in 10.0 mi WNW 5.8 mph - N/A   Clear
12:15 PM 59.0 °F - 39.2 °F 48% 29.92 in 10.0 mi NNW 6.9 mph - N/A   Partly Cloudy
12:35 PM 62.6 °F - 39.2 °F 42% 29.91 in 10.0 mi NNW 8.1 mph - N/A   Scattered Clouds
12:55 PM 62.6 °F - 39.2 °F 42% 29.91 in 10.0 mi NNW 13.8 mph 24.2 mph N/A   Scattered Clouds
1:15 PM 62.6 °F - 39.2 °F 42% 29.91 in 10.0 mi NNW 15.0 mph 18.4 mph N/A   Mostly Cloudy
1:35 PM 62.6 °F - 39.2 °F 42% 29.91 in 10.0 mi NNW 13.8 mph - N/A   Mostly Cloudy
1:55 PM 62.6 °F - 37.4 °F 39% 29.90 in 10.0 mi NNW 15.0 mph - N/A   Mostly Cloudy
2:15 PM 62.6 °F - 37.4 °F 39% 29.89 in 10.0 mi NW 12.7 mph 23.0 mph N/A   Mostly Cloudy
2:35 PM 64.4 °F - 35.6 °F 34% 29.89 in 10.0 mi WNW 15.0 mph 25.3 mph N/A   Scattered Clouds
2:55 PM 62.6 °F - 35.6 °F 37% 29.89 in 10.0 mi NW 16.1 mph 25.3 mph N/A   Scattered Clouds
3:15 PM 64.4 °F - 33.8 °F 32% 29.88 in 10.0 mi NW 23.0 mph 31.1 mph N/A   Partly Cloudy
3:35 PM 66.2 °F - 32.0 °F 28% 29.87 in 10.0 mi WNW 24.2 mph 29.9 mph N/A   Scattered Clouds
3:55 PM 64.4 °F - 32.0 °F 30% 29.87 in 10.0 mi WNW 19.6 mph 26.5 mph N/A   Partly Cloudy
4:15 PM 66.2 °F - 32.0 °F 28% 29.87 in 10.0 mi WNW 19.6 mph 29.9 mph N/A   Scattered Clouds
4:35 PM 64.4 °F - 30.2 °F 28% 29.88 in 10.0 mi NNW 20.7 mph 26.5 mph N/A   Partly Cloudy
4:55 PM 64.4 °F - 28.4 °F 26% 29.88 in 10.0 mi NW 21.9 mph 29.9 mph N/A   Clear
5:15 PM 64.4 °F - 26.6 °F 24% 29.89 in 10.0 mi NNW 24.2 mph 31.1 mph N/A   Clear
5:35 PM 64.4 °F - 24.8 °F 22% 29.89 in 10.0 mi NNW 24.2 mph 29.9 mph N/A   Clear
5:55 PM 62.6 °F - 26.6 °F 26% 29.90 in 10.0 mi NNW 25.3 mph 33.4 mph N/A   Partly Cloudy
6:15 PM 62.6 °F - 26.6 °F 26% 29.91 in 10.0 mi NNW 25.3 mph 29.9 mph N/A   Partly Cloudy
6:35 PM 60.8 °F - 26.6 °F 27% 29.92 in 10.0 mi NNW 19.6 mph 25.3 mph N/A   Partly Cloudy
6:55 PM 59.0 °F - 28.4 °F 31% 29.93 in 10.0 mi NNW 20.7 mph 27.6 mph N/A   Partly Cloudy
7:15 PM 59.0 °F - 28.4 °F 31% 29.94 in 10.0 mi NW 17.3 mph 25.3 mph N/A   Clear
7:35 PM 57.2 °F - 26.6 °F 31% 29.94 in 10.0 mi NW 15.0 mph 20.7 mph N/A   Clear
7:55 PM 50.0 °F - 37.4 °F 62% 29.99 in 10.0 mi NNE 20.7 mph 34.5 mph N/A   Clear
8:15 PM 48.2 °F - 35.6 °F 62% 30.01 in 10.0 mi NNE 24.2 mph 29.9 mph N/A   Clear
8:35 PM 46.4 °F 39.5 °F 35.6 °F 66% 30.03 in 10.0 mi NNE 17.3 mph 26.5 mph N/A   Clear
8:55 PM 46.4 °F 38.7 °F 32.0 °F 57% 30.05 in 10.0 mi NNE 20.7 mph 34.5 mph N/A   Clear
9:15 PM 44.6 °F 38.4 °F 30.2 °F 57% 30.07 in 10.0 mi North 12.7 mph 23.0 mph N/A   Clear
9:35 PM 42.8 °F 34.5 °F 28.4 °F 57% 30.08 in 10.0 mi North 18.4 mph 26.5 mph N/A   Clear
9:55 PM 41.0 °F 32.8 °F 28.4 °F 61% 30.09 in 10.0 mi North 16.1 mph 25.3 mph N/A   Clear
10:15 PM 41.0 °F 33.1 °F 26.6 °F 57% 30.11 in 10.0 mi North 15.0 mph 19.6 mph N/A   Clear
10:35 PM 39.2 °F 33.0 °F 26.6 °F 61% 30.12 in 10.0 mi North 9.2 mph 18.4 mph N/A   Clear
10:55 PM 37.4 °F 32.8 °F 28.4 °F 70% 30.13 in 10.0 mi NNW 5.8 mph - N/A   Clear
11:15 PM 37.4 °F 30.8 °F 26.6 °F 65% 30.14 in 10.0 mi North 9.2 mph - N/A   Clear
11:35 PM 35.6 °F 29.9 °F 24.8 °F 65% 30.14 in 10.0 mi NW 6.9 mph - N/A   Clear
11:55 PM 35.6 °F 28.6 °F 26.6 °F 70% 30.14 in 10.0 mi NNW 9.2 mph - N/A   Clear